QPF
0.06 0.04 0.04 0.05 0.05 0.05 0.05 0.05 0.06 0.07 0.08 0.07 0.07 0.09 0.12 0.10 0.08 0.08 0.08 0.08 0.07 0.07 0.08 0.08 0.07 0.06 0.05 0.04 0.05 0.06 0.06 0.06 0.06 0.06 0.07 0.08 0.07 0.07 0.08 0.08 0.08 0.07 0.06
0.06 0.06 0.06 0.06 0.06 0.06 0.05 0.04 0.04 0.05 0.06 0.06 0.07 0.10 0.13 0.13 0.12 0.11 0.11 0.09 0.08 0.08 0.08 0.08 0.08 0.09 0.07 0.06 0.06 0.06 0.06 0.06 0.06 0.06 0.06 0.07 0.06 0.06 0.06 0.05 0.04 0.04 0.03
0.04 0.05 0.05 0.05 0.07 0.08 0.07 0.05 0.04 0.04 0.05 0.05 0.05 0.07 0.09 0.11 0.11 0.09 0.09 0.08 0.08 0.08 0.07 0.08 0.07 0.08 0.07 0.07 0.06 0.07 0.07 0.07 0.06 0.06 0.05 0.06 0.06 0.06 0.05 0.05 0.06 0.05 0.04
0.02 0.02 0.02 0.03 0.07 0.10 0.07 0.06 0.05 0.05 0.05 0.04 0.05 0.06 0.08 0.10 0.09 0.08 0.08 0.07 0.06 0.05 0.05 0.06 0.06 0.07 0.06 0.06 0.07 0.07 0.08 0.08 0.09 0.08 0.07 0.07 0.07 0.06 0.06 0.05 0.06 0.06 0.06
0.02 0.02 0.02 0.02 0.03 0.05 0.04 0.04 0.06 0.06 0.07 0.07 0.07 0.08 0.09 0.11 0.12 0.11 0.10 0.09 0.08 0.06 0.05 0.05 0.06 0.08 0.08 0.07 0.07 0.07 0.08 0.08 0.08 0.08 0.06 0.05 0.05 0.05 0.06 0.06 0.06 0.07 0.08
0.02 0.02 0.03 0.03 0.03 0.04 0.05 0.05 0.05 0.04 0.05 0.07 0.09 0.09 0.10 0.12 0.15 0.13 0.11 0.09 0.07 0.05 0.05 0.06 0.08 0.10 0.10 0.10 0.09 0.08 0.06 0.05 0.05 0.04 0.03 0.04 0.05 0.06 0.06 0.06 0.07 0.08 0.09
0.01 0.02 0.02 0.02 0.01 0.02 0.03 0.03 0.04 0.04 0.03 0.04 0.08 0.09 0.09 0.12 0.13 0.12 0.10 0.08 0.07 0.07 0.08 0.09 0.11 0.13 0.14 0.14 0.14 0.12 0.09 0.08 0.06 0.06 0.06 0.06 0.06 0.07 0.06 0.07 0.06 0.06 0.06
0.01 0.01 0.01 0.02 0.02 0.02 0.02 0.02 0.02 0.02 0.03 0.03 0.03 0.03 0.04 0.05 0.07 0.07 0.07 0.06 0.06 0.07 0.08 0.09 0.11 0.12 0.13 0.12 0.11 0.10 0.08 0.08 0.08 0.06 0.06 0.05 0.05 0.04 0.04 0.05 0.05 0.04 0.04
0.01 0.02 0.02 0.03 0.03 0.02 0.03 0.02 0.02 0.01 0.02 0.02 0.02 0.02 0.03 0.03 0.05 0.07 0.09 0.09 0.10 0.10 0.09 0.09 0.09 0.08 0.09 0.09 0.08 0.07 0.07 0.06 0.05 0.04 0.03 0.03 0.03 0.04 0.04 0.04 0.04 0.04 0.04
0.01 0.01 0.03 0.04 0.04 0.03 0.03 0.04 0.03 0.02 0.02 0.02 0.02 0.03 0.04 0.05 0.06 0.08 0.09 0.09 0.08 0.09 0.09 0.09 0.10 0.09 0.07 0.06 0.05 0.05 0.05 0.05 0.05 0.05 0.04 0.03 0.02 0.02 0.03 0.02 0.03 0.03 0.03
0.02 0.03 0.04 0.04 0.05 0.05 0.05 0.06 0.05 0.05 0.04 0.04 0.04 0.03 0.03 0.04 0.05 0.06 0.07 0.07 0.08 0.11 0.13 0.13 0.13 0.11 0.08 0.07 0.05 0.04 0.04 0.04 0.04 0.04 0.03 0.02 0.01 0.01 0.01 0.01 0.02 0.02 0.02
0.03 0.03 0.04 0.04 0.05 0.05 0.05 0.06 0.06 0.07 0.06 0.06 0.05 0.04 0.03 0.03 0.04 0.05 0.06 0.07 0.07 0.09 0.12 0.12 0.12 0.11 0.09 0.08 0.06 0.05 0.04 0.03 0.03 0.03 0.03 0.02 0.02 0.01 0.01 0.01 0.01 0.01 0.01
0.04 0.04 0.04 0.04 0.05 0.05 0.05 0.05 0.05 0.05 0.05 0.05 0.05 0.04 0.03 0.03 0.04 0.06 0.05 0.05 0.05 0.04 0.05 0.06 0.06 0.06 0.06 0.06 0.05 0.03 0.03 0.02 0.02 0.02 0.02 0.02 0.01 0.01 0.02 0.02 0.01 0.01 0.01
0.05 0.05 0.05 0.04 0.05 0.05 0.05 0.05 0.05 0.05 0.05 0.05 0.05 0.05 0.05 0.04 0.05 0.06 0.05 0.05 0.06 0.06 0.06 0.05 0.04 0.04 0.02 0.02 0.02 0.02 0.01 0.01 0.01 0.01 0.01 0.01 0.00 0.00 0.00 0.01 0.01 0.01 0.01
0.04 0.05 0.07 0.07 0.05 0.05 0.06 0.06 0.06 0.07 0.08 0.08 0.07 0.07 0.07 0.07 0.08 0.10 0.09 0.07 0.06 0.05 0.04 0.03 0.02 0.02 0.02 0.02 0.02 0.02 0.02 0.02 0.02 0.02 0.02 0.01 0.01 0.00 0.00 0.00 0.00 0.00 0.01
0.03 0.04 0.06 0.07 0.06 0.06 0.06 0.07 0.08 0.09 0.10 0.10 0.09 0.07 0.07 0.08 0.09 0.08 0.07 0.05 0.03 0.02 0.02 0.01 0.02 0.02 0.03 0.03 0.03 0.03 0.03 0.03 0.02 0.02 0.02 0.02 0.01 0.00 0.00 0.00 0.00 0.00 0.00
0.03 0.04 0.05 0.07 0.09 0.09 0.08 0.07 0.08 0.09 0.09 0.09 0.08 0.06 0.05 0.05 0.04 0.03 0.03 0.02 0.02 0.02 0.01 0.02 0.02 0.03 0.03 0.03 0.03 0.04 0.03 0.03 0.02 0.02 0.01 0.01 0.00 0.00 0.00 0.00 0.00 0.00 0.00
0.04 0.05 0.05 0.06 0.07 0.07 0.07 0.07 0.07 0.07 0.06 0.06 0.06 0.06 0.05 0.05 0.05 0.03 0.02 0.02 0.02 0.02 0.02 0.03 0.03 0.03 0.03 0.03 0.03 0.02 0.01 0.01 0.01 0.01 0.00 0.00 0.00 0.00 0.00 0.00 0.00 0.00 0.00
0.03 0.05 0.05 0.05 0.05 0.05 0.05 0.05 0.06 0.05 0.04 0.04 0.04 0.05 0.05 0.05 0.05 0.04 0.03 0.03 0.02 0.02 0.02 0.02 0.02 0.02 0.01 0.01 0.01 0.00 0.00 0.00 0.00 0.00 0.00 0.00 0.00 0.00 0.00 0.00 0.00 0.00 0.00
0.02 0.03 0.03 0.03 0.03 0.03 0.03 0.03 0.03 0.03 0.03 0.02 0.02 0.02 0.02 0.03 0.03 0.03 0.02 0.02 0.02 0.02 0.02 0.02 0.01 0.01 0.01 0.01 0.01 0.01 0.00 0.00 0.00 0.00 0.00 0.00 0.00 0.00 0.00 0.00 0.00 0.00 0.00
0.02 0.02 0.02 0.01 0.01 0.02 0.01 0.01 0.01 0.02 0.02 0.02 0.01 0.01 0.01 0.01 0.01 0.01 0.01 0.01 0.01 0.01 0.01 0.01 0.01 0.01 0.01 0.01 0.01 0.01 0.00 0.00 0.00 0.00 0.00 0.00 0.00 0.00 0.00 0.00 0.00 0.00 0.00
0.01 0.01 0.00 0.00 0.01 0.01 0.01 0.01 0.01 0.01 0.01 0.01 0.01 0.01 0.02 0.01 0.01 0.01 0.01 0.00 0.01 0.01 0.00 0.00 0.00 0.00 0.00 0.00 0.00 0.00 0.00 0.00 0.00 0.00 0.00 0.00 0.00 0.00 0.00 0.00 0.00 0.00 0.00
0.01 0.01 0.01 0.01 0.01 0.01 0.01 0.01 0.01 0.01 0.01 0.01 0.01 0.01 0.01 0.01 0.01 0.01 0.01 0.01 0.01 0.01 0.01 0.01 0.01 0.01 0.00 0.00 0.00 0.00 0.00 0.00 0.00 0.00 0.00 0.00 0.00 0.00 0.00 0.00 0.00 0.00 0.00
0.00 0.00 0.00 0.00 0.00 0.00 0.00 0.00 0.00 0.01 0.01 0.01 0.01 0.01 0.01 0.01 0.01 0.02 0.02 0.02 0.02 0.02 0.02 0.01 0.01 0.01 0.01 0.01 0.00 0.00 0.00 0.00 0.00 0.00 0.00 0.00 0.00 0.00 0.00 0.00 0.00 0.00 0.00
0.00 0.00 0.00 0.00 0.00 0.00 0.00 0.00 0.00 0.00 0.00 0.00 0.00 0.01 0.01 0.01 0.01 0.02 0.02 0.02 0.02 0.02 0.02 0.02 0.02 0.02 0.01 0.01 0.00 0.00 0.00 0.00 0.00 0.00 0.00 0.00 0.00 0.00 0.00 0.00 0.00 0.00 0.00
0.00 0.00 0.00 0.00 0.00 0.00 0.00 0.00 0.00 0.00 0.00 0.00 0.00 0.00 0.00 0.01 0.01 0.01 0.01 0.01 0.02 0.02 0.02 0.02 0.02 0.02 0.01 0.01 0.00 0.00 0.00 0.00 0.00 0.00 0.00 0.00 0.00 0.00 0.00 0.00 0.00 0.00 0.00
MSLP
1014.32 1014.61 1014.96 1015.32 1015.65 1015.93 1016.14 1016.29 1016.41 1016.52 1016.65 1016.80 1016.98 1017.18 1017.37 1017.56 1017.70 1017.82 1017.90 1017.97 1018.05 1018.14 1018.27 1018.44 1018.65 1018.87 1019.10 1019.31 1019.51 1019.69 1019.85 1020.01 1020.18 1020.38 1020.61 1020.87 1021.16 1021.48 1021.81 1022.15 1022.50 1022.86 1023.25
1014.27 1014.52 1014.83 1015.16 1015.46 1015.73 1015.95 1016.12 1016.26 1016.38 1016.50 1016.64 1016.78 1016.93 1017.06 1017.18 1017.28 1017.35 1017.40 1017.45 1017.52 1017.61 1017.74 1017.91 1018.10 1018.33 1018.56 1018.79 1019.01 1019.24 1019.47 1019.72 1020.00 1020.32 1020.67 1021.06 1021.47 1021.90 1022.33 1022.75 1023.16 1023.57 1023.99
1014.25 1014.47 1014.74 1015.03 1015.31 1015.56 1015.77 1015.95 1016.09 1016.22 1016.34 1016.46 1016.57 1016.67 1016.76 1016.83 1016.87 1016.90 1016.93 1016.97 1017.03 1017.13 1017.27 1017.44 1017.65 1017.89 1018.13 1018.39 1018.65 1018.92 1019.21 1019.54 1019.91 1020.33 1020.80 1021.31 1021.83 1022.37 1022.89 1023.39 1023.87 1024.33 1024.77
1014.23 1014.44 1014.68 1014.93 1015.17 1015.40 1015.60 1015.78 1015.93 1016.07 1016.20 1016.31 1016.41 1016.48 1016.53 1016.56 1016.57 1016.57 1016.57 1016.60 1016.67 1016.78 1016.94 1017.14 1017.38 1017.63 1017.90 1018.18 1018.46 1018.77 1019.11 1019.49 1019.93 1020.43 1020.99 1021.58 1022.21 1022.83 1023.44 1024.02 1024.56 1025.05 1025.52
1014.22 1014.43 1014.64 1014.86 1015.07 1015.27 1015.46 1015.64 1015.80 1015.96 1016.10 1016.23 1016.33 1016.40 1016.44 1016.44 1016.43 1016.41 1016.41 1016.45 1016.53 1016.66 1016.84 1017.07 1017.33 1017.62 1017.91 1018.21 1018.51 1018.84 1019.20 1019.61 1020.08 1020.62 1021.23 1021.88 1022.56 1023.25 1023.92 1024.55 1025.14 1025.67 1026.15
1014.26 1014.45 1014.65 1014.83 1015.01 1015.18 1015.36 1015.55 1015.73 1015.92 1016.10 1016.26 1016.39 1016.48 1016.52 1016.53 1016.51 1016.49 1016.50 1016.54 1016.63 1016.79 1017.00 1017.26 1017.55 1017.86 1018.17 1018.48 1018.79 1019.12 1019.48 1019.89 1020.36 1020.91 1021.52 1022.19 1022.89 1023.61 1024.31 1024.98 1025.59 1026.15 1026.64
1014.36 1014.55 1014.72 1014.87 1015.01 1015.17 1015.34 1015.53 1015.75 1015.98 1016.21 1016.42 1016.59 1016.71 1016.79 1016.81 1016.81 1016.81 1016.82 1016.87 1016.99 1017.17 1017.40 1017.69 1018.01 1018.33 1018.66 1018.98 1019.29 1019.60 1019.94 1020.32 1020.77 1021.28 1021.87 1022.51 1023.20 1023.91 1024.61 1025.29 1025.91 1026.47 1026.97
1014.58 1014.74 1014.88 1014.98 1015.09 1015.22 1015.39 1015.60 1015.85 1016.12 1016.41 1016.68 1016.91 1017.09 1017.20 1017.27 1017.29 1017.31 1017.34 1017.41 1017.54 1017.74 1018.00 1018.31 1018.65 1018.99 1019.33 1019.65 1019.95 1020.24 1020.55 1020.89 1021.29 1021.75 1022.28 1022.88 1023.52 1024.19 1024.87 1025.52 1026.13 1026.68 1027.17
1014.90 1015.02 1015.11 1015.17 1015.24 1015.34 1015.50 1015.72 1016.00 1016.33 1016.67 1017.00 1017.30 1017.53 1017.70 1017.81 1017.87 1017.91 1017.97 1018.06 1018.22 1018.44 1018.72 1019.05 1019.40 1019.76 1020.11 1020.43 1020.72 1020.99 1021.27 1021.57 1021.91 1022.31 1022.78 1023.31 1023.89 1024.50 1025.12 1025.72 1026.30 1026.83 1027.30
1015.29 1015.35 1015.37 1015.38 1015.41 1015.48 1015.63 1015.87 1016.18 1016.55 1016.94 1017.33 1017.69 1017.98 1018.20 1018.36 1018.46 1018.54 1018.63 1018.75 1018.93 1019.17 1019.47 1019.82 1020.19 1020.57 1020.92 1021.25 1021.54 1021.80 1022.06 1022.32 1022.62 1022.96 1023.36 1023.82 1024.33 1024.87 1025.42 1025.96 1026.49 1026.97 1027.41
1015.68 1015.67 1015.62 1015.57 1015.55 1015.60 1015.75 1015.99 1016.33 1016.73 1017.17 1017.62 1018.03 1018.37 1018.65 1018.86 1019.01 1019.13 1019.26 1019.41 1019.62 1019.89 1020.21 1020.58 1020.97 1021.36 1021.73 1022.06 1022.36 1022.63 1022.87 1023.12 1023.38 1023.69 1024.03 1024.42 1024.86 1025.32 1025.80 1026.27 1026.73 1027.16 1027.55
1016.00 1015.90 1015.78 1015.68 1015.62 1015.66 1015.80 1016.06 1016.42 1016.85 1017.34 1017.83 1018.29 1018.69 1019.01 1019.28 1019.48 1019.65 1019.82 1020.02 1020.26 1020.55 1020.90 1021.29 1021.69 1022.10 1022.49 1022.84 1023.15 1023.43 1023.68 1023.92 1024.17 1024.45 1024.75 1025.10 1025.47 1025.86 1026.26 1026.66 1027.05 1027.41 1027.74
1016.19 1016.01 1015.83 1015.68 1015.61 1015.64 1015.79 1016.07 1016.45 1016.92 1017.45 1017.98 1018.48 1018.93 1019.31 1019.62 1019.88 1020.11 1020.33 1020.57 1020.85 1021.17 1021.54 1021.94 1022.37 1022.78 1023.18 1023.55 1023.88 1024.17 1024.44 1024.69 1024.94 1025.21 1025.49 1025.80 1026.12 1026.46 1026.79 1027.12 1027.42 1027.71 1027.98
1016.24 1015.99 1015.77 1015.60 1015.52 1015.57 1015.74 1016.05 1016.47 1016.98 1017.54 1018.11 1018.65 1019.15 1019.58 1019.95 1020.26 1020.54 1020.81 1021.10 1021.41 1021.76 1022.14 1022.55 1022.98 1023.40 1023.80 1024.18 1024.52 1024.82 1025.11 1025.38 1025.64 1025.91 1026.19 1026.48 1026.77 1027.05 1027.33 1027.59 1027.83 1028.05 1028.25
1016.18 1015.89 1015.65 1015.49 1015.44 1015.52 1015.73 1016.08 1016.54 1017.09 1017.68 1018.29 1018.87 1019.41 1019.88 1020.30 1020.66 1020.99 1021.31 1021.63 1021.97 1022.33 1022.72 1023.12 1023.53 1023.94 1024.33 1024.70 1025.05 1025.36 1025.66 1025.95 1026.23 1026.51 1026.79 1027.07 1027.34 1027.60 1027.83 1028.04 1028.23 1028.39 1028.53
1016.11 1015.81 1015.59 1015.45 1015.45 1015.58 1015.85 1016.25 1016.75 1017.33 1017.96 1018.59 1019.20 1019.76 1020.27 1020.72 1021.13 1021.49 1021.84 1022.18 1022.52 1022.88 1023.26 1023.64 1024.03 1024.41 1024.77 1025.12 1025.45 1025.77 1026.08 1026.37 1026.67 1026.97 1027.26 1027.53 1027.80 1028.04 1028.25 1028.42 1028.56 1028.68 1028.77
1016.13 1015.86 1015.67 1015.59 1015.65 1015.84 1016.16 1016.61 1017.15 1017.76 1018.40 1019.05 1019.67 1020.24 1020.77 1021.23 1021.65 1022.03 1022.39 1022.73 1023.07 1023.41 1023.76 1024.10 1024.45 1024.78 1025.11 1025.43 1025.74 1026.05 1026.35 1026.66 1026.97 1027.27 1027.57 1027.86 1028.12 1028.35 1028.55 1028.71 1028.82 1028.91 1028.98
1016.34 1016.12 1015.99 1015.97 1016.09 1016.34 1016.71 1017.19 1017.76 1018.38 1019.02 1019.66 1020.27 1020.83 1021.35 1021.81 1022.22 1022.59 1022.93 1023.26 1023.57 1023.88 1024.18 1024.48 1024.77 1025.06 1025.35 1025.63 1025.92 1026.21 1026.51 1026.81 1027.13 1027.45 1027.76 1028.05 1028.32 1028.56 1028.75 1028.89 1029.00 1029.08 1029.13
1016.78 1016.61 1016.54 1016.59 1016.77 1017.07 1017.47 1017.97 1018.54 1019.15 1019.77 1020.37 1020.95 1021.48 1021.96 1022.38 1022.77 1023.11 1023.42 1023.71 1023.98 1024.25 1024.50 1024.75 1025.00 1025.24 1025.49 1025.74 1026.00 1026.28 1026.57 1026.88 1027.20 1027.53 1027.85 1028.15 1028.42 1028.66 1028.85 1029.00 1029.11 1029.18 1029.22
1017.40 1017.30 1017.30 1017.40 1017.62 1017.95 1018.37 1018.86 1019.41 1019.98 1020.55 1021.11 1021.62 1022.10 1022.52 1022.90 1023.23 1023.52 1023.79 1024.04 1024.27 1024.49 1024.70 1024.91 1025.11 1025.32 1025.54 1025.77 1026.02 1026.29 1026.58 1026.89 1027.21 1027.55 1027.87 1028.18 1028.46 1028.70 1028.89 1029.04 1029.15 1029.21 1029.25
1018.13 1018.09 1018.14 1018.29 1018.54 1018.87 1019.28 1019.75 1020.25 1020.77 1021.28 1021.76 1022.21 1022.61 1022.96 1023.27 1023.55 1023.79 1024.01 1024.21 1024.40 1024.58 1024.76 1024.94 1025.12 1025.31 1025.52 1025.74 1025.99 1026.26 1026.55 1026.87 1027.20 1027.53 1027.86 1028.17 1028.45 1028.68 1028.88 1029.02 1029.13 1029.19 1029.22
1018.84 1018.86 1018.95 1019.13 1019.38 1019.71 1020.09 1020.52 1020.96 1021.41 1021.85 1022.25 1022.62 1022.94 1023.23 1023.47 1023.69 1023.88 1024.05 1024.22 1024.37 1024.53 1024.69 1024.86 1025.03 1025.22 1025.43 1025.66 1025.92 1026.20 1026.50 1026.83 1027.16 1027.50 1027.82 1028.12 1028.39 1028.62 1028.81 1028.95 1029.05 1029.10 1029.12
1019.41 1019.48 1019.60 1019.79 1020.04 1020.35 1020.69 1021.07 1021.45 1021.83 1022.19 1022.52 1022.82 1023.07 1023.29 1023.48 1023.65 1023.80 1023.94 1024.07 1024.21 1024.35 1024.51 1024.67 1024.85 1025.06 1025.28 1025.53 1025.80 1026.10 1026.41 1026.74 1027.08 1027.41 1027.73 1028.02 1028.28 1028.50 1028.67 1028.80 1028.88 1028.92 1028.93
1019.79 1019.88 1020.02 1020.21 1020.45 1020.73 1021.04 1021.37 1021.70 1022.02 1022.32 1022.58 1022.82 1023.02 1023.19 1023.33 1023.46 1023.58 1023.70 1023.82 1023.94 1024.08 1024.23 1024.41 1024.60 1024.82 1025.06 1025.32 1025.61 1025.92 1026.25 1026.58 1026.91 1027.24 1027.55 1027.82 1028.07 1028.27 1028.42 1028.53 1028.60 1028.63 1028.61
1019.94 1020.05 1020.21 1020.40 1020.62 1020.88 1021.16 1021.45 1021.73 1022.00 1022.25 1022.47 1022.66 1022.82 1022.96 1023.08 1023.18 1023.28 1023.38 1023.49 1023.61 1023.74 1023.89 1024.07 1024.27 1024.50 1024.75 1025.02 1025.32 1025.64 1025.96 1026.29 1026.62 1026.94 1027.23 1027.49 1027.72 1027.90 1028.05 1028.14 1028.20 1028.21 1028.17
1019.92 1020.05 1020.20 1020.39 1020.61 1020.85 1021.10 1021.35 1021.60 1021.84 1022.05 1022.24 1022.40 1022.54 1022.66 1022.76 1022.84 1022.93 1023.02 1023.11 1023.22 1023.35 1023.50 1023.67 1023.87 1024.09 1024.34 1024.61 1024.90 1025.21 1025.53 1025.85 1026.17 1026.48 1026.75 1027.00 1027.22 1027.39 1027.52 1027.60 1027.64 1027.64 1027.59
Thickness
5746 5744 5743 5741 5739 5737 5735 5733 5731 5730 5729 5727 5725 5724 5722 5720 5719 5718 5716 5715 5713 5712 5711 5709 5708 5707 5706 5704 5703 5701 5698 5695 5686 5679 5676 5674 5673 5672 5669 5668 5665 5663 5660
5746 5743 5741 5739 5736 5734 5733 5731 5729 5728 5726 5724 5722 5720 5719 5718 5716 5715 5712 5711 5709 5707 5706 5705 5703 5702 5700 5699 5697 5695 5693 5690 5684 5675 5669 5666 5663 5662 5660 5657 5654 5652 5648
5744 5740 5737 5735 5733 5731 5729 5728 5726 5725 5723 5721 5719 5717 5716 5715 5713 5711 5709 5707 5705 5704 5702 5701 5699 5697 5694 5693 5691 5689 5686 5683 5679 5672 5663 5658 5654 5652 5649 5646 5643 5640 5637
5741 5738 5734 5732 5730 5728 5726 5724 5722 5721 5719 5718 5716 5715 5713 5711 5709 5706 5704 5701 5699 5698 5696 5695 5693 5691 5689 5687 5684 5682 5679 5674 5669 5664 5656 5650 5645 5641 5639 5635 5630 5627 5623
5738 5735 5732 5729 5727 5724 5722 5720 5718 5717 5716 5714 5712 5710 5708 5706 5704 5701 5699 5695 5693 5690 5688 5687 5686 5685 5683 5681 5678 5674 5670 5665 5659 5653 5647 5641 5636 5631 5627 5624 5619 5614 5609
5734 5731 5728 5725 5722 5719 5717 5714 5712 5711 5709 5708 5707 5705 5702 5700 5698 5696 5693 5689 5686 5683 5679 5677 5676 5674 5673 5671 5668 5665 5661 5656 5650 5644 5638 5632 5626 5622 5617 5614 5609 5605 5598
5730 5727 5724 5720 5717 5714 5711 5708 5705 5703 5702 5701 5699 5698 5695 5693 5691 5689 5686 5682 5678 5675 5672 5669 5666 5663 5661 5658 5654 5652 5648 5644 5641 5636 5629 5623 5617 5612 5608 5603 5598 5593 5586
5726 5723 5719 5716 5712 5708 5705 5702 5699 5697 5695 5693 5691 5689 5687 5684 5682 5680 5677 5674 5670 5666 5663 5660 5656 5652 5649 5647 5643 5638 5634 5630 5627 5623 5619 5613 5608 5603 5599 5594 5587 5580 5574
5721 5717 5714 5711 5707 5703 5699 5696 5693 5691 5688 5685 5682 5680 5678 5674 5673 5671 5669 5665 5661 5656 5653 5650 5646 5642 5639 5636 5633 5627 5622 5617 5613 5610 5606 5601 5597 5592 5588 5583 5577 5572 5565
5715 5712 5709 5705 5702 5698 5694 5691 5687 5684 5680 5677 5673 5671 5669 5666 5663 5662 5660 5657 5652 5647 5642 5639 5636 5632 5629 5626 5622 5618 5611 5604 5601 5597 5592 5588 5584 5580 5576 5572 5567 5562 5555
5710 5706 5702 5698 5695 5692 5688 5684 5680 5676 5672 5668 5664 5660 5658 5656 5653 5651 5650 5648 5643 5638 5633 5628 5624 5622 5618 5615 5612 5607 5601 5595 5590 5585 5580 5575 5571 5567 5562 5558 5554 5550 5545
5702 5698 5694 5691 5688 5685 5680 5676 5672 5669 5665 5660 5655 5651 5647 5645 5643 5640 5639 5637 5634 5629 5622 5617 5612 5610 5607 5603 5598 5594 5589 5585 5580 5574 5569 5563 5558 5553 5549 5544 5540 5536 5532
5694 5690 5687 5683 5680 5677 5673 5669 5665 5661 5657 5652 5648 5643 5638 5635 5632 5629 5627 5625 5621 5617 5611 5606 5602 5598 5594 5589 5585 5581 5577 5573 5568 5563 5556 5550 5545 5540 5536 5532 5527 5523 5519
5687 5683 5679 5675 5671 5667 5663 5660 5657 5653 5649 5645 5640 5635 5630 5625 5622 5619 5615 5612 5608 5604 5599 5594 5590 5586 5582 5577 5572 5568 5564 5560 5556 5550 5544 5538 5533 5529 5524 5520 5515 5511 5507
5679 5675 5671 5666 5662 5656 5652 5648 5645 5642 5640 5637 5634 5629 5624 5618 5613 5610 5607 5602 5598 5594 5589 5584 5579 5574 5570 5565 5560 5556 5552 5547 5543 5537 5532 5527 5522 5517 5512 5507 5503 5500 5496
5671 5666 5662 5657 5653 5647 5642 5636 5632 5630 5628 5625 5622 5619 5614 5610 5604 5600 5596 5593 5588 5584 5580 5574 5569 5564 5559 5555 5550 5545 5540 5535 5530 5526 5521 5516 5511 5506 5502 5497 5493 5489 5486
5663 5658 5653 5648 5643 5638 5634 5630 5624 5617 5615 5612 5610 5607 5603 5598 5594 5590 5586 5582 5577 5574 5570 5564 5559 5554 5549 5544 5539 5535 5530 5524 5519 5515 5510 5505 5500 5496 5492 5488 5484 5480 5476
5652 5648 5643 5638 5633 5629 5625 5621 5617 5612 5606 5599 5596 5594 5591 5588 5584 5580 5576 5572 5566 5563 5559 5554 5549 5544 5539 5534 5530 5525 5520 5514 5510 5505 5501 5496 5491 5487 5484 5480 5475 5471 5468
5641 5636 5632 5627 5623 5619 5615 5610 5606 5601 5596 5590 5586 5581 5578 5575 5572 5569 5565 5563 5558 5553 5549 5544 5540 5535 5530 5525 5520 5516 5511 5506 5501 5497 5492 5488 5483 5479 5476 5472 5468 5462 5460
5630 5626 5622 5617 5612 5608 5604 5600 5595 5591 5586 5582 5578 5574 5569 5567 5563 5558 5555 5552 5549 5545 5540 5536 5531 5526 5522 5517 5512 5507 5502 5497 5493 5489 5484 5480 5476 5472 5468 5464 5461 5457 5454
5619 5615 5612 5607 5602 5598 5595 5590 5586 5582 5578 5574 5570 5566 5563 5560 5556 5551 5547 5544 5540 5536 5532 5528 5523 5519 5514 5509 5504 5499 5495 5490 5485 5481 5477 5473 5469 5465 5461 5458 5454 5451 5448
5609 5605 5601 5597 5593 5589 5585 5582 5577 5574 5570 5566 5562 5557 5554 5551 5548 5544 5540 5536 5533 5529 5525 5521 5517 5512 5508 5503 5498 5493 5489 5484 5479 5475 5471 5467 5463 5459 5456 5452 5449 5446 5443
5599 5595 5591 5587 5583 5579 5576 5572 5569 5566 5562 5559 5555 5551 5547 5544 5541 5537 5533 5530 5526 5522 5518 5514 5510 5506 5502 5497 5492 5488 5483 5479 5474 5470 5465 5461 5457 5454 5450 5447 5444 5441 5439
5590 5587 5583 5579 5575 5571 5568 5565 5562 5559 5555 5552 5548 5545 5541 5537 5534 5531 5527 5523 5520 5516 5512 5508 5504 5500 5496 5491 5486 5482 5478 5474 5469 5465 5460 5456 5453 5449 5445 5442 5439 5437 5434
5580 5577 5574 5571 5568 5565 5561 5558 5555 5552 5549 5545 5542 5539 5535 5531 5528 5524 5521 5517 5513 5510 5506 5502 5498 5494 5490 5485 5481 5477 5473 5469 5464 5460 5455 5451 5448 5444 5441 5438 5435 5433 5431
5572 5569 5566 5563 5561 5558 5555 5552 5549 5546 5542 5539 5536 5532 5529 5525 5522 5518 5514 5511 5507 5504 5500 5496 5492 5488 5484 5480 5476 5472 5468 5464 5459 5455 5451 5447 5443 5440 5437 5435 5432 5430 5427